Regional Weather Roundup
Issued by NWS

Home | Current Version | Previous Version | Text Only | Print | Product List | Glossary On
Versions: 1 2 3 4 5 6 7 8 9 10 11 12 13 14 15 16 17 18 19 20 21 22 23 24 25 26 27 28 29 30 31 32 33 34 35 36 37 38 39 40 41 42 43 44 45 46 47 48 49 50
000
ASUS43 KDTX 280801
RWRMI
MICHIGAN HOURLY REGIONAL WEATHER ROUNDUP
NATIONAL WEATHER SERVICE DETROIT/PONTIAC MI
400 AM EDT TUE APR 28 2015

NOTE: "FAIR" INDICATES FEW OR NO CLOUDS BELOW 12,000 FEET WITH NO
SIGNIFICANT WEATHER AND/OR OBSTRUCTION TO VISIBILITY.

MIZ047>049-052>055-059>063-066>070-074>076-081>083-280900-
SOUTHEAST LOWER MICHIGAN

CITY           SKY/WX    TMP DP  RH WIND       PRES   REMARKS
ADRIAN         CLEAR     34  31  88 N3        30.10R
ALMA           CLEAR     35  33  92 CALM      30.11S
ANN ARBOR      CLEAR     30  28  92 CALM      30.10R
BAD AXE        PTCLDY    36  33  88 CALM      30.10S
CARO           MOCLDY    30  29  97 CALM      30.10S
DETROIT CITY   CLEAR     38  32  79 NW3       30.09F
DETROIT        MOCLDY    38  32  79 CALM      30.10S
FLINT          CLEAR     34  29  82 CALM      30.11R
GROSSE ILE     CLEAR     36  32  87 CALM      30.08S
HILLSDALE      CLEAR     34  33  96 CALM      30.09R
HOWELL         CLEAR     36  32  87 CALM      30.09S

CITY           SKY/WX    TMP DP  RH WIND       PRES   REMARKS
JACKSON        CLEAR     34  30  85 CALM      30.10R
LAMBERTVILLE   CLEAR     34  32  93 CALM      30.10R
LANSING        CLEAR     38  31  76 E3        30.11S
LAPEER         FAIR      29  29  99 CALM      30.09S
MASON          CLEAR     33  31  94 CALM      30.10S
MONROE         CLEAR     34  30  86 CALM      30.08S
PONTIAC        CLEAR     33  29  85 CALM      30.07F
PORT HOPE        N/A     40  35  83 NW5       30.08S
PORT HURON     CLEAR     30  30 100 CALM      30.09S
TRI CITIES     CLEAR     39  34  82 CALM      30.11S
MIDLAND        FAIR      34  32  94 CALM      30.11R
TROY           CLEAR     41  32  70 N5        30.10S
SAGINAW HB     CLEAR     36  32  87 CALM      30.10R
$$
MIZ043>046-050>051-056>058-064>065-071>073-077>080-280900-
SOUTHWEST LOWER MICHIGAN

CITY           SKY/WX    TMP DP  RH WIND       PRES   REMARKS
BATTLE CREEK   CLEAR     37  32  82 NE7       30.10R WCI  32
BENTON HARBOR  CLEAR     32  31  96 CALM      30.11R
BIG RAPIDS     CLEAR     34  32  91 CALM      30.10S
COLDWATER      CLEAR     32  31  97 CALM      30.10R
FREMONT        FAIR      35  32  87 N5        30.10S WCI  31
HOLLAND        CLEAR     37  32  82 CALM      30.11R
GRAND RAPIDS   CLEAR     37  32  82 E8        30.10R WCI  31
IONIA          FAIR      40  32  73 E6        30.10R
KALAMAZOO      CLEAR     36  31  82 CALM      30.10R
LUDINGTON      CLEAR     33  30  90 CALM      30.12F
MARSHALL       CLEAR     31  30  96 CALM      30.09S FOG
MOUNT PLEASANT CLEAR     35  33  93 CALM      30.11R
MUSKEGON       CLEAR     38  32  79 N6        30.11R WCI  33
SOUTH HAVEN    CLEAR     33  31  94 CALM      30.11R
$$
MIZ016>042-280900-
NORTHERN LOWER MICHIGAN

CITY           SKY/WX    TMP DP  RH WIND       PRES   REMARKS
BEAVER ISLAND  CLOUDY    40  33  75 NE3       30.15S
BELLAIRE       CLOUDY    44  35  70 CALM      30.13S
CADILLAC       CLEAR     29  27  92 NW3       30.10S
CHARLEVOIX     CLOUDY    38  34  85 N3        30.17R
FRANKFORT      CLEAR     36  30  79 CALM      30.13S
GAYLORD        CLOUDY    42  34  73 N3        30.10S
GRAYLING       CLOUDY    42  33  71 CALM      30.11S
HARBOR SPRINGS CLOUDY    42  34  71 CALM      30.13S
HOUGHTON LAKE  CLEAR     32  30  92 CALM      30.10S
MANISTEE       CLEAR     30  27  86 CALM      30.13S
OSCODA         CLOUDY    44  36  72 N5        30.10S
PELLSTON       CLOUDY    42  35  76 NW5       30.14R
ROGERS CITY    CLOUDY    40  35  80 CALM      30.13S
TRAVERSE CITY  CLEAR     33  30  88 CALM      30.12S
$$
MIZ007>008-015-280900-
EASTERN UPPER MICHIGAN

CITY           SKY/WX    TMP DP  RH WIND       PRES   REMARKS
KINROSS        CLOUDY    37  36  93 N3        30.13S
MACKINAC ISLAN CLOUDY    39  33  78 N5        30.12S
NEWBERRY       CLEAR     34  32  91 NW3       30.14S
S. S. MARIE    CLOUDY    43  34  70 N5        30.13S
$$
MIZ004>006-011>014-085-280900-
CENTRAL UPPER MICHIGAN

CITY           SKY/WX    TMP DP  RH WIND       PRES   REMARKS
MANISTIQUE     MOCLDY    36  32  84 N3        30.14S
ESCANABA       CLEAR     34  28  80 NW3       30.16S
MENOMINEE      CLEAR     34  30  86 NW3       30.15S
SAWYER-GWINN   CLEAR     30  28  90 CALM      30.15R
$$
MIZ001>003-009>011-084-280900-
WESTERN UPPER MICHIGAN

CITY           SKY/WX    TMP DP  RH WIND       PRES   REMARKS
IRON MOUNTAIN  CLEAR     30  26  85 N3        30.15S
HOUGHTON       CLEAR     36  30  79 CALM      30.14S
COPPER HARBOR    N/A     33  29  85 SW5       30.15R WCI  29
IRONWOOD       CLEAR     32  30  93 CALM      30.13R
$$

ABBREVIATIONS USED IN REMARKS
   TC - TEMPERATURE IN CELSIUS
  WCI - WIND CHILL INDEX
   HX - HEAT INDEX
  VSB - VISIBILITY



USA.gov is the U.S. government's official web portal to all federal, state and local government web resources and services.